Regional Weather Roundup
Issued by NWS Mobile, AL

Home | Current Version | Previous Version | Text Only | Print | Product List | Glossary On
Versions: 1 2 3 4 5 6 7 8 9 10 11 12 13 14 15 16 17 18 19 20 21 22 23 24 25 26 27
000
ASUS44 KMOB 010812
RWRMOB
REGIONAL WEATHER ROUNDUP
NATIONAL WEATHER SERVICE MOBILE AL
300 AM CDT SUN MAY 01 2016

NOTE: "FAIR" INDICATES FEW OR NO CLOUDS BELOW 12,000 FEET WITH NO
      SIGNIFICANT WEATHER AND/OR OBSTRUCTIONS TO VISIBILITY.

  * THESE STATIONS ARE PART OF THE UNIVERSITY OF SOUTH ALABAMA
    MESONET AND ARE NOT UNDER NWS OR FAA QUALITY CONTROL.

ALZ061>064-010900-
COASTAL ALABAMA

CITY           SKY/WX    TMP DP  RH WIND       PRES   REMARKS
MOBILE REG APT CLOUDY    71  71 100 SE5       29.91S
BROOKLEY FIELD CLOUDY    75  74  96 S7        29.91S
USA CAMPUS*    NOT AVBL
DOG RIVER*     NOT AVBL


CITY           SKY/WX    TMP DP  RH WIND       PRES   REMARKS
MOUNT VERNON*  NOT AVBL
SARALAND*      NOT AVBL
BAY MINETTE*   NOT AVBL
LOXLEY*        NOT AVBL
ROBERTSDALE*   NOT AVBL
FAIRHOPE*      NOT AVBL
ELBERTA*       NOT AVBL
FOLEY*         NOT AVBL
GRAND BAY*     NOT AVBL
DAUPHIN ISLND* NOT AVBL
BON SCOUR NWR* NOT AVBL
GULF SHORES    CLEAR     73  73 100 S12       29.90S

$$

ALZ051>060-010900-
INTERIOR SOUTHWEST AND SOUTH CENTRAL ALABAMA

CITY           SKY/WX    TMP DP  RH WIND       PRES   REMARKS
GREENVILLE     CLOUDY    73  69  87 VRB3      29.94R
EVERGREEN      CLOUDY    67  65  93 CALM      29.94R
CASTLEBERRY*   NOT AVBL
ATMORE*        NOT AVBL
DIXIE*         NOT AVBL
ANDALUSIA/OPP  PTCLDY    75  70  84 CALM      29.94R
ANDALUSIA*     NOT AVBL
FLORALA APT    NOT AVBL
FLORALA*       NOT AVBL

$$

FLZ001>006-010900-
WESTERN FLORIDA PANHANDLE

CITY           SKY/WX    TMP DP  RH WIND       PRES   REMARKS
PENSACOLA      MOCLDY    75  72  90 S7        29.91R
NAS PENSACOLA  NOT AVBL
MILTON         LGT RAIN  74  74 100 S8        29.92S
WHTNG S FIELD  CLOUDY    76  74  93 S8        29.92R


CITY           SKY/WX    TMP DP  RH WIND       PRES   REMARKS
WALNUT HILL*   NOT AVBL
JAY*           NOT AVBL
CRESTVIEW      CLOUDY    75  72  90 S6        29.94R
VALPARAISO     NOT AVBL
DESTIN         PTCLDY    77  75  93 S5        29.92R

$$

MSZ076-079-010900-
INTERIOR SOUTHEAST MISSISSIPPI

CITY           SKY/WX    TMP DP  RH WIND       PRES   REMARKS
LEAKESVILLE*   NOT AVBL
AGRICOLA*      NOT AVBL

$$

MARINE OBSERVATIONS

STATION/POSITION TIME  TEMP    WIND        PRES    WAVE
                       AIR SEA DIR/SP/G            HT/PER
                 (UTC) (F)     (DEG/KT/KT) (MB)    (FT/S)
PASCAGOULA       0700   75     150/ 10/ 12 1011.9F
PETIT BOIS ISLND 0700   75     150/ 11/ 13 1012.7F
GRAND BAY        0600   75     150/ 13     1014.0S
KATRINA CUT      0700   75     160/ 15       N/A
CEDAR POINT      0700   74     150/  9     1012.2
E DAUPHIN ISLAND 0800   76     160/ 13/ 15 1011.7F
MIDDLE BAY LIGHT 0700   75     160/ 12     1012.2F
USCG MOBILE BAY  0700   73 76  160/  3/  5 1012.9F
STATE DOCKS      0700   73 73              1012.3F
MEAHER PARK      0700   71     140/  4     1012.2F
WEEKS BAY        0600   69                   N/A
FORT MORGAN      0700   76     170/ 14/ 16 1011.9F
12 S ORANGE BCH  0750   75 74  160/ 10/ 12 1011.5F   4/ 7
PENSACOLA BAY    0700   83 70  180/  8/ 11 1012.9S
64 S DAUPHIN ISL 0700   76 74  150/ 14/ 16 1011.9F

$$

SELECTED LOCATIONS ACROSS THE REGION

CITY           SKY/WX    TMP DP  RH WIND       PRES   REMARKS
NEW ORLEANS    PTCLDY    71  67  87 SE6       29.85F
GULFPORT       CLOUDY    75  71  87 SE12      29.88S
PASCAGOULA AP  CLOUDY    73  71  93 VRB3      29.89S
PASCAGOULA*    NOT AVBL
HATTIESBURG    PTCLDY    63  61  93 CALM      29.90F
LAUREL         CLEAR     63  59  88 CALM      29.91R
MERIDIAN       CLEAR     62  61  96 CALM      29.91S
JACKSON        MOCLDY    66  63  90 S6        29.88F
MONTGOMERY     PTCLDY    72  67  84 CALM      29.94S
TROY           MOCLDY    72  69  90 CALM      29.96R
KINSTON*       NOT AVBL
GENEVA*        NOT AVBL
ASHFORD*       NOT AVBL
DOTHAN         MOCLDY    71  67  87 S3        29.98R
PANAMA CITY    CLOUDY    75  72  90 SE7       29.92R

$$





USA.gov is the U.S. government's official web portal to all federal, state and local government web resources and services.